Location: Hamilton
(43.2500°N, 79.8330°W)
Time: 14:15:17
(UTC-04:00)

Amateur Radio Satellites - All Passes

Search period start: 02 July 2015 13:45
Search period end: 03 July 2015 13:45
Location: Hamilton, 43.2500°N, 79.8330°W

Satellite Date Start Highest point End Downlink Frequencies (MHz)
Time Altitude Azimuth
VELOX 1 02 Jul 14:00:42 14:02:49 13° 298° (WNW) 14:04:43 145.980
TISAT 1 02 Jul 14:01:08 14:05:21 89° 289° (WNW) 14:09:32 437.305
ISS 02 Jul 14:25:57 14:28:47 26° 17° (NNE) 14:31:36 145.825
Gurwin Techsat 1B 02 Jul 14:31:40 14:36:50 57° 72° (ENE) 14:42:04 435.225
Oscar 19 02 Jul 14:46:08 14:50:46 33° 264° (W) 14:55:21 437.125/150
SPROUT 02 Jul 14:46:32 14:49:47 21° 294° (WNW) 14:52:56 437.525
PHONESAT 2.4 02 Jul 14:47:45 14:50:56 34° 197° (SSW) 14:54:08 2401.200-2431.200
ITAMSAT 1 02 Jul 14:51:32 14:56:45 84° 72° (ENE) 15:02:01 435.822/435.867
BEESAT 02 Jul 14:55:43 15:00:27 54° 100° (E) 15:05:08 436.000
AO-7 02 Jul 15:02:37 15:09:49 35° 58° (ENE) 15:17:11 29.400- 29.500
YUBILEINY 02 Jul 15:02:53 15:11:30 59° 76° (ENE) 15:20:10 435.215
SWISSCUBE 02 Jul 15:10:53 15:15:44 83° 105° (ESE) 15:20:33 437.505
HORYU 2 02 Jul 15:12:09 15:15:13 19° 65° (ENE) 15:18:26 437.375
KKS-1 02 Jul 15:12:36 15:14:45 14° 89° (E) 15:17:08 437.445
ITUPSAT 1 02 Jul 15:15:01 15:19:52 82° 102° (ESE) 15:24:42 437.325
Cosmos 2491 02 Jul 15:24:43 15:32:35 39° 87° (E) 15:40:35 435.465 / 435.565
PCSat 02 Jul 15:41:35 15:44:38 16° 106° (ESE) 15:47:55 145.827
JAS-2 02 Jul 15:42:14 15:47:18 61° 73° (ENE) 15:52:37 435.910
ISS 02 Jul 16:02:10 16:05:24 65° 215° (SW) 16:08:36 145.825
STARS 02 Jul 16:09:07 16:13:03 33° 96° (E) 16:17:01 437.465
BEESAT 3 02 Jul 16:13:23 16:16:39 23° 43° (NE) 16:19:56 437.485
Gurwin Techsat 1B 02 Jul 16:13:26 16:17:16 19° 270° (W) 16:20:56 435.225
BEESAT 2 02 Jul 16:22:17 16:25:34 23° 43° (NE) 16:28:52 435.950
PHONESAT 2.4 02 Jul 16:27:21 16:28:24 11° 211° (SSW) 16:29:21 2401.200-2431.200
BEESAT 02 Jul 16:34:32 16:37:55 19° 296° (WNW) 16:41:09 436.000
ITAMSAT 1 02 Jul 16:34:46 16:37:02 12° 274° (W) 16:39:00 435.822/435.867
AIST 1 02 Jul 16:39:32 16:43:55 81° 97° (E) 16:48:22
HORYU 2 02 Jul 16:47:22 16:51:35 44° 261° (W) 16:55:49 437.375
KKS-1 02 Jul 16:47:28 16:51:51 58° 287° (WNW) 16:56:12 437.445
MOZHAYETS 4 02 Jul 16:49:15 16:52:06 16° 89° (E) 16:55:09
SWISSCUBE 02 Jul 16:50:45 16:52:59 13° 300° (WNW) 16:55:00 437.505
AO-7 02 Jul 16:54:03 17:02:16 60° 257° (WSW) 17:10:32 29.400- 29.500
ITUPSAT 1 02 Jul 16:54:52 16:57:10 13° 300° (WNW) 16:59:15 437.325
Cosmos 2504 02 Jul 16:57:23 17:04:16 37° 71° (ENE) 17:11:43 435.465 / 435.565
YUBILEINY 02 Jul 17:00:27 17:07:54 32° 276° (W) 17:15:10 435.215
CUTE-I 02 Jul 17:12:55 17:15:38 15° 59° (ENE) 17:18:36 437.470
Cosmos 2491 02 Jul 17:20:50 17:29:20 49° 287° (WNW) 17:37:47 435.465 / 435.565
PCSat 02 Jul 17:22:04 17:27:29 75° 301° (WNW) 17:32:57 145.827
AIST 2 02 Jul 17:25:42 17:29:16 26° 44° (NE) 17:32:50 435.215
JAS-2 02 Jul 17:29:57 17:33:09 16° 272° (W) 17:36:10 435.910
Cubesat XI-IV 02 Jul 17:44:27 17:48:49 27° 65° (ENE) 17:53:19 437.490
STARS 02 Jul 17:45:48 17:49:22 24° 293° (WNW) 17:52:52 437.465
SO-50 02 Jul 17:50:46 17:55:19 49° 118° (ESE) 18:00:02 436.795
BEESAT 3 02 Jul 17:50:56 17:54:46 40° 242° (WSW) 17:58:31 437.485
BEESAT 2 02 Jul 17:59:56 18:03:48 41° 242° (WSW) 18:07:36 435.950
O/OREOS (USA 219) 02 Jul 18:01:05 18:05:31 54° 63° (ENE) 18:09:59 437.305
AIST 1 02 Jul 18:21:51 18:22:18 10° 297° (WNW) 18:22:31
MOZHAYETS 4 02 Jul 18:25:10 18:29:43 53° 287° (WNW) 18:34:14
CUBESAT XI-V 02 Jul 18:46:10 18:49:50 23° 92° (E) 18:53:36 437.345
CUTE-I 02 Jul 18:49:41 18:55:03 86° 254° (WSW) 19:00:29 437.470
Cosmos 2504 02 Jul 18:50:35 18:57:52 47° 269° (W) 19:05:33 435.465 / 435.565
AIST 2 02 Jul 19:04:03 19:07:56 36° 243° (WSW) 19:11:43 435.215
PCSat 02 Jul 19:08:34 19:11:55 16° 324° (NW) 19:15:07 145.827
GOMX 1 02 Jul 19:09:58 19:11:34 12° 62° (ENE) 19:13:23 467.674
BRITE-PL 02 Jul 19:20:35 19:24:53 25° 67° (ENE) 19:29:07 437.365/2234.400
Cubesat XI-IV 02 Jul 19:23:37 19:28:44 44° 262° (W) 19:33:52 437.490
SO-50 02 Jul 19:32:01 19:36:08 27° 318° (NW) 19:40:16 436.795
HO-68 02 Jul 19:36:06 19:41:36 26° 58° (ENE) 19:47:18 435.675
CUSAT 1 02 Jul 19:38:14 19:40:54 44° 76° (ENE) 19:43:24 437.405
GONETS M04 02 Jul 19:39:15 19:46:00 25° 62° (ENE) 19:53:00
O/OREOS (USA 219) 02 Jul 19:41:47 19:44:33 16° 259° (W) 19:47:09 437.305
CUTE 1.7 + AOD 2 02 Jul 19:47:35 19:48:57 12° 63° (ENE) 19:50:30 437.475
CANX-2 02 Jul 19:49:52 19:51:54 14° 64° (ENE) 19:54:07 2200.000
PRISM 02 Jul 19:55:24 19:59:15 34° 97° (E) 20:03:05 437.425
DOVE 4 02 Jul 20:02:10 20:05:49 22° 68° (ENE) 20:09:25 437.250
CUBESAT XI-V 02 Jul 20:23:04 20:27:27 38° 290° (WNW) 20:31:44 437.345
STRAND 1 02 Jul 20:26:33 20:31:44 76° 104° (ESE) 20:36:52 437.568
DANDE 02 Jul 20:27:32 20:30:26 45° 264° (W) 20:32:58 436.750
CUTE-I 02 Jul 20:34:25 20:36:04 11° 275° (W) 20:37:20 437.470
SEEDS 02 Jul 20:36:43 20:40:22 30° 70° (ENE) 20:44:04 437.485
GOMX 1 02 Jul 20:43:54 20:49:08 85° 77° (ENE) 20:54:03 467.674
AAUSAT CUBESAT 2 02 Jul 20:53:06 20:56:43 31° 70° (ENE) 21:00:26 437.432
Oscar 11 02 Jul 20:54:43 20:57:22 17° 65° (ENE) 21:00:08 145.826/435.025
BRITE-PL 02 Jul 20:57:50 21:03:11 48° 262° (W) 21:08:14 437.365/2234.400
CINEMA 3 02 Jul 21:02:35 21:06:46 38° 72° (ENE) 21:10:49 145.822/145.860
M-CUBED/EXP-1 PRIME 02 Jul 21:09:24 21:12:08 17° 98° (E) 21:15:08 437.505
Cosmos 2499 02 Jul 21:16:10 21:21:36 21° 63° (ENE) 21:27:38 435.465 / 435.565
COMPASS 1 02 Jul 21:16:51 21:20:57 67° 75° (ENE) 21:25:06 437.405
FUNcube-1 02 Jul 21:18:24 21:20:58 16° 65° (ENE) 21:23:37 145.935
CUTE 1.7 + AOD 2 02 Jul 21:20:08 21:24:20 72° 258° (WSW) 21:28:34 437.475
HO-68 02 Jul 21:21:40 21:28:48 70° 257° (WSW) 21:35:58 435.675
CANX-2 02 Jul 21:23:14 21:27:23 60° 260° (W) 21:31:35 2200.000
DELFI C3 02 Jul 21:23:34 21:26:34 21° 68° (ENE) 21:29:41 145.870
UWE-3 02 Jul 21:24:23 21:27:48 24° 69° (ENE) 21:31:15 435.000/436.395/437.385
PRISM 02 Jul 21:31:13 21:34:31 22° 293° (WNW) 21:37:42 437.425
GONETS M04 02 Jul 21:35:13 21:43:54 75° 265° (W) 21:52:32
DOVE 4 02 Jul 21:38:40 21:43:23 43° 262° (W) 21:47:50 437.250
DX 1 02 Jul 22:02:54 22:06:07 21° 66° (ENE) 22:09:27 434.975-435.025
CUBEBUG 2 02 Jul 22:04:26 22:08:46 84° 76° (ENE) 22:13:01 437.445
STRAND 1 02 Jul 22:07:18 22:10:22 16° 300° (WNW) 22:13:14 437.568
AUBIESAT-1 02 Jul 22:10:40 22:14:48 67° 107° (ESE) 22:19:15 437.475
SEEDS 02 Jul 22:12:47 22:16:12 23° 267° (W) 22:19:34 437.485
ZACube-1 02 Jul 22:15:38 22:19:50 68° 75° (ENE) 22:24:00 437.345
GOMX 1 02 Jul 22:25:57 22:27:53 12° 273° (W) 22:29:27 467.674
UKube-1 02 Jul 22:26:11 22:30:02 32° 69° (ENE) 22:33:56 .
Oscar 11 02 Jul 22:29:01 22:33:11 50° 261° (W) 22:37:23 145.826/435.025
AAUSAT CUBESAT 2 02 Jul 22:29:04 22:32:23 23° 267° (W) 22:35:39 437.432
AISAT 02 Jul 22:31:45 22:35:16 24° 67° (ENE) 22:38:53 437.250
TIGRISAT 02 Jul 22:40:09 22:40:28 10° 87° (E) 22:41:04 435.000
CINEMA 3 02 Jul 22:40:36 22:44:07 21° 267° (W) 22:47:24 145.822/145.860
M-CUBED/EXP-1 PRIME 02 Jul 22:43:09 22:47:08 48° 292° (WNW) 22:51:23 437.505
HUMSAT D 02 Jul 22:50:57 22:55:02 72° 76° (ENE) 22:59:08 437.325/437.525
FUNcube-1 02 Jul 22:52:53 22:56:58 47° 261° (W) 23:01:01 145.935
CUBEBUG 1 02 Jul 22:56:06 22:59:30 23° 67° (ENE) 23:03:01 437.445
COMPASS 1 02 Jul 22:56:10 22:57:10 11° 273° (W) 22:57:55 437.405
ESTCUBE 1 02 Jul 22:56:18 23:00:03 27° 68° (ENE) 23:03:55 437.505/2401.250
DELFI C3 02 Jul 22:57:53 23:01:30 31° 264° (W) 23:05:07 145.870
UWE-3 02 Jul 23:00:28 23:04:15 30° 264° (W) 23:07:57 435.000/436.395/437.385
Cosmos 2499 02 Jul 23:07:58 23:15:45 84° 263° (W) 23:24:09 435.465 / 435.565
50 SAT 02 Jul 23:14:52 23:18:39 69° 75° (ENE) 23:22:29 437.505
HO-68 02 Jul 23:15:35 23:18:01 11° 277° (W) 23:19:54 435.675
UNISAT 6 02 Jul 23:16:10 23:19:52 27° 95° (E) 23:23:42 437.425
POLYITAN 1 02 Jul 23:17:59 23:19:05 11° 88° (E) 23:20:26 437.675
VELOX 1 02 Jul 23:20:38 23:25:05 72° 75° (ENE) 23:29:33 145.980
GONETS M04 02 Jul 23:34:59 23:39:23 14° 284° (WNW) 23:43:11
DX 1 02 Jul 23:38:00 23:42:09 40° 262° (W) 23:46:17 434.975-435.025
BUGSAT 1 02 Jul 23:40:55 23:42:24 12° 88° (E) 23:44:04 437.445
QB50P2 02 Jul 23:46:09 23:49:31 23° 94° (E) 23:52:58 145.880/145.840
AUBIESAT-1 02 Jul 23:46:56 23:49:12 14° 300° (WNW) 23:51:22 437.475
POPSAT HIP 1 02 Jul 23:47:24 23:50:45 23° 94° (E) 23:54:10 437.405
ZACube-1 02 Jul 23:55:43 23:56:44 11° 273° (W) 23:57:29 437.345
ANTELSAT 03 Jul 00:00:11 00:04:34 81° 102° (ESE) 00:09:02 437.575/2403.000
UKube-1 03 Jul 00:02:38 00:06:13 24° 266° (W) 00:09:45 .
SPROUT 03 Jul 00:05:05 00:08:57 33° 70° (ENE) 00:12:51 437.525
AISAT 03 Jul 00:07:33 00:11:42 35° 263° (W) 00:15:49 437.250
TIGRISAT 03 Jul 00:13:28 00:17:49 76° 285° (WNW) 00:22:14 435.000
QB50P1 03 Jul 00:26:05 00:30:16 64° 101° (E) 00:34:26 145.935-145.965
PCSat 03 Jul 00:26:22 00:30:22 21° 41° (NE) 00:34:28 145.827
CUBEBUG 1 03 Jul 00:31:32 00:35:41 37° 263° (W) 00:39:48 437.445
ESTCUBE 1 03 Jul 00:32:46 00:36:50 32° 264° (W) 00:40:55 437.505/2401.250
NANOSAT C BR1 03 Jul 00:41:04 00:45:17 88° 285° (WNW) 00:49:29 145.865
SO-50 03 Jul 00:41:59 00:44:29 14° 30° (NNE) 00:47:06 436.795
SWISSCUBE 03 Jul 00:43:35 00:45:50 14° 61° (ENE) 00:48:18 437.505
ITUPSAT 1 03 Jul 00:47:58 00:50:12 14° 61° (ENE) 00:52:41 437.325
DUCHIFAT 1 03 Jul 00:48:43 00:52:54 74° 285° (WNW) 00:57:04 145.980
POLYITAN 1 03 Jul 00:51:20 00:55:31 66° 286° (WNW) 00:59:40 437.675
UNISAT 6 03 Jul 00:52:51 00:56:39 29° 291° (WNW) 01:00:27 437.425
TISAT 1 03 Jul 00:53:53 00:58:07 77° 77° (ENE) 01:02:23 437.305
VELOX 1 03 Jul 01:00:35 01:02:13 11° 273° (W) 01:03:34 145.980
Cosmos 2499 03 Jul 01:03:27 01:08:01 16° 280° (W) 01:12:14 435.465 / 435.565
BUGSAT 1 03 Jul 01:14:18 01:18:19 56° 286° (WNW) 01:22:15 437.445
QB50P2 03 Jul 01:21:43 01:25:28 31° 290° (WNW) 01:29:09 145.880/145.840
POPSAT HIP 1 03 Jul 01:22:56 01:26:40 31° 291° (WNW) 01:30:21 437.405
Cosmos 2491 03 Jul 01:33:54 01:39:52 20° 59° (ENE) 01:46:11 435.465 / 435.565
ANTELSAT 03 Jul 01:39:23 01:40:49 11° 298° (WNW) 01:42:03 437.575/2403.000
SPROUT 03 Jul 01:41:38 01:45:07 23° 267° (W) 01:48:30 437.525
RS-15 03 Jul 01:49:12 01:57:11 26° 103° (ESE) 02:05:47 29.354- 29.394
BEESAT 03 Jul 02:03:04 02:07:48 70° 74° (ENE) 02:12:35 436.000
QB50P1 03 Jul 02:03:40 02:05:40 13° 297° (WNW) 02:07:30 145.935-145.965
PCSat 03 Jul 02:09:00 02:14:27 77° 242° (WSW) 02:19:51 145.827
KKS-1 03 Jul 02:11:58 02:14:34 16° 64° (ENE) 02:17:20 437.445
YUBILEINY 03 Jul 02:15:45 02:18:00 12° 74° (ENE) 02:20:57 435.215
SWISSCUBE 03 Jul 02:18:20 02:23:07 78° 257° (WSW) 02:27:57 437.505
SO-50 03 Jul 02:21:11 02:26:07 60° 52° (NE) 02:30:57 436.795
ITUPSAT 1 03 Jul 02:22:44 02:27:32 78° 257° (WSW) 02:32:22 437.325
AIST 1 03 Jul 02:46:16 02:49:41 22° 71° (ENE) 02:53:09
Gurwin Techsat 1B 03 Jul 02:47:34 02:51:27 21° 91° (E) 02:55:29 435.225
Oscar 19 03 Jul 02:55:49 03:00:59 81° 105° (ESE) 03:06:07 437.125/150
ITAMSAT 1 03 Jul 03:03:52 03:08:14 27° 94° (E) 03:12:41 435.822/435.867
STARS 03 Jul 03:06:58 03:10:55 34° 69° (ENE) 03:14:54 437.465
Cosmos 2491 03 Jul 03:29:24 03:38:14 90° 95° (E) 03:46:57 435.465 / 435.565
BEESAT 03 Jul 03:43:51 03:46:14 13° 272° (W) 03:48:22 436.000
KKS-1 03 Jul 03:46:25 03:50:48 57° 260° (W) 03:55:13 437.445
MOZHAYETS 4 03 Jul 03:52:30 03:55:32 18° 65° (ENE) 03:58:45
RS-15 03 Jul 03:57:22 04:08:19 85° 306° (NW) 04:19:40 29.354- 29.394
SO-50 03 Jul 04:02:44 04:06:15 19° 249° (WSW) 04:09:35 436.795
YUBILEINY 03 Jul 04:04:45 04:13:16 65° 93° (E) 04:21:52 435.215
AIST 1 03 Jul 04:23:30 04:27:26 32° 269° (W) 04:31:17
Gurwin Techsat 1B 03 Jul 04:26:38 04:31:48 53° 289° (WNW) 04:36:57 435.225
JAS-2 03 Jul 04:32:52 04:39:16 56° 100° (E) 04:46:27 435.910
Oscar 19 03 Jul 04:36:56 04:39:44 15° 300° (WNW) 04:42:20 437.125/150
HORYU 2 03 Jul 04:37:27 04:41:25 31° 96° (E) 04:45:25 437.375
ITAMSAT 1 03 Jul 04:43:00 04:47:53 39° 291° (WNW) 04:52:40 435.822/435.867
STARS 03 Jul 04:43:51 04:47:27 23° 266° (W) 04:50:56 437.465
AO-7 03 Jul 04:54:22 05:02:17 45° 99° (E) 05:10:14 29.400- 29.500
MOZHAYETS 4 03 Jul 05:27:59 05:32:26 50° 261° (W) 05:36:55
Cosmos 2491 03 Jul 05:28:14 05:34:00 19° 281° (WNW) 05:39:18 435.465 / 435.565
Cosmos 2504 03 Jul 05:38:51 05:44:29 26° 85° (E) 05:50:17 435.465 / 435.565
CUBESAT XI-V 03 Jul 05:50:33 05:54:24 26° 67° (ENE) 05:58:21 437.345
YUBILEINY 03 Jul 06:03:27 06:10:52 29° 295° (WNW) 06:18:05 435.215
STRAND 1 03 Jul 06:06:45 06:09:53 17° 61° (ENE) 06:13:13 437.568
RS-15 03 Jul 06:12:50 06:22:36 33° 333° (NNW) 06:32:37 29.354- 29.394
HORYU 2 03 Jul 06:14:13 06:17:58 27° 293° (WNW) 06:21:40 437.375
JAS-2 03 Jul 06:18:37 06:24:08 30° 294° (WNW) 06:30:03 435.910
PRISM 03 Jul 06:46:28 06:50:05 30° 69° (ENE) 06:53:47 437.425
AO-7 03 Jul 06:47:16 06:55:07 45° 299° (WNW) 07:02:50 29.400- 29.500
CUTE-I 03 Jul 07:06:03 07:10:55 35° 96° (E) 07:15:48 437.470
CUBESAT XI-V 03 Jul 07:27:23 07:31:43 35° 264° (W) 07:36:02 437.345
Cosmos 2504 03 Jul 07:30:24 07:37:28 55° 284° (WNW) 07:44:30 435.465 / 435.565
Cubesat XI-IV 03 Jul 07:39:27 07:44:50 70° 102° (ESE) 07:50:11 437.490
STRAND 1 03 Jul 07:43:27 07:48:35 69° 258° (WSW) 07:53:46 437.568
BEESAT 3 03 Jul 07:44:32 07:47:56 26° 115° (ESE) 07:51:25 437.485
BEESAT 2 03 Jul 07:54:29 07:57:54 26° 115° (ESE) 08:01:25 435.950
DANDE 03 Jul 07:54:47 08:00:14 24° 92° (E) 08:05:00 436.750
M-CUBED/EXP-1 PRIME 03 Jul 07:59:20 08:01:48 20° 62° (ENE) 08:04:25 437.505
O/OREOS (USA 219) 03 Jul 08:14:19 08:18:38 51° 108° (ESE) 08:23:00 437.305
PRISM 03 Jul 08:22:06 08:25:33 24° 266° (W) 08:28:58 437.425
RS-15 03 Jul 08:30:46 08:39:38 25° 7° (N) 08:48:53 29.354- 29.394
ISS 03 Jul 08:42:21 08:44:48 20° 135° (SE) 08:47:18 145.825
GONETS M04 03 Jul 08:42:40 08:49:27 27° 83° (E) 08:56:30
CUSAT 1 03 Jul 08:43:07 08:49:50 74° 99° (E) 08:54:54 437.405
AO-7 03 Jul 08:43:28 08:45:55 11° 320° (NW) 08:47:55 29.400- 29.500
GOMX 1 03 Jul 08:45:59 08:49:02 19° 91° (E) 08:52:07 467.674
CUTE-I 03 Jul 08:46:11 08:50:58 33° 293° (WNW) 08:55:39 437.470
HO-68 03 Jul 08:49:14 08:54:21 22° 90° (E) 08:59:44 435.675
AUBIESAT-1 03 Jul 09:00:13 09:03:31 77° 252° (WSW) 09:06:58 437.475
BRITE-PL 03 Jul 09:02:10 09:06:26 50° 99° (E) 09:10:30 437.365/2234.400
COMPASS 1 03 Jul 09:02:17 09:02:34 10° 87° (E) 09:03:07 437.405
AIST 2 03 Jul 09:02:31 09:06:22 35° 117° (ESE) 09:10:18 435.215
CUTE 1.7 + AOD 2 03 Jul 09:05:09 09:08:03 18° 91° (E) 09:11:05 437.475
CANX-2 03 Jul 09:07:59 09:11:16 22° 92° (E) 09:14:38 2200.000
VERMONT LUNAR 03 Jul 09:15:07 09:17:49 26° 161° (SSE) 09:20:31 437.305
Cubesat XI-IV 03 Jul 09:20:50 09:24:26 18° 299° (WNW) 09:27:51 437.490
BEESAT 3 03 Jul 09:22:04 09:25:48 33° 312° (NW) 09:29:32 437.485
BEESAT 2 03 Jul 09:32:06 09:35:53 33° 312° (NW) 09:39:39 435.950
M-CUBED/EXP-1 PRIME 03 Jul 09:33:54 09:36:36 23° 260° (W) 09:39:20 437.505
DANDE 03 Jul 09:36:02 09:43:20 59° 282° (WNW) 09:48:56 436.750
DOVE 4 03 Jul 09:36:41 09:40:38 42° 98° (E) 09:44:36 437.250
TIGRISAT 03 Jul 09:40:07 09:41:17 11° 62° (ENE) 09:42:40 435.000
SEEDS 03 Jul 09:54:57 09:59:07 51° 99° (E) 10:03:17 437.485
O/OREOS (USA 219) 03 Jul 09:55:14 09:58:25 18° 308° (NW) 10:01:31 437.305
CUBEBUG 2 03 Jul 09:55:32 09:57:55 15° 90° (E) 10:00:29 437.445
Cosmos 2499 03 Jul 09:59:04 10:01:14 12° 78° (ENE) 10:03:54 435.465 / 435.565
ZACube-1 03 Jul 10:05:05 10:06:28 12° 88° (E) 10:08:05 437.345
AAUSAT CUBESAT 2 03 Jul 10:09:47 10:13:54 50° 99° (E) 10:18:01 437.432
POLYITAN 1 03 Jul 10:12:44 10:13:51 11° 62° (ENE) 10:15:12 437.675
Oscar 11 03 Jul 10:15:29 10:19:09 26° 94° (E) 10:22:51 145.826/435.025
UNISAT 6 03 Jul 10:16:30 10:20:07 27° 68° (ENE) 10:23:45 437.425
ISS 03 Jul 10:17:48 10:20:59 54° 332° (NNW) 10:24:11 145.825
GOMX 1 03 Jul 10:23:29 10:27:23 35° 290° (WNW) 10:31:08 467.674
CUSAT 1 03 Jul 10:28:46 10:32:38 16° 291° (WNW) 10:35:46 437.405
BUGSAT 1 03 Jul 10:32:40 10:34:03 12° 63° (ENE) 10:35:37 437.445
CINEMA 3 03 Jul 10:32:53 10:37:05 82° 105° (ESE) 10:41:17 145.822/145.860
COMPASS 1 03 Jul 10:34:35 10:38:49 73° 285° (WNW) 10:43:01 437.405
DELFI C3 03 Jul 10:35:39 10:39:14 30° 95° (E) 10:42:51 145.870
HO-68 03 Jul 10:35:43 10:42:52 74° 289° (WNW) 10:49:59 435.675
HUMSAT D 03 Jul 10:36:22 10:37:10 11° 87° (E) 10:38:15 437.325/437.525
GONETS M04 03 Jul 10:36:54 10:45:40 68° 282° (WNW) 10:54:24
FUNcube-1 03 Jul 10:40:07 10:43:43 27° 95° (E) 10:47:25 145.935
CUTE 1.7 + AOD 2 03 Jul 10:40:08 10:44:11 41° 288° (WNW) 10:48:13 437.475
QB50P2 03 Jul 10:40:21 10:43:33 22° 67° (ENE) 10:46:52 145.880/145.840
AIST 2 03 Jul 10:41:17 10:45:01 28° 315° (NW) 10:48:43 435.215
POPSAT HIP 1 03 Jul 10:41:28 10:44:39 22° 67° (ENE) 10:47:57 437.405
BRITE-PL 03 Jul 10:41:54 10:44:34 16° 297° (WNW) 10:47:02 437.365/2234.400
CANX-2 03 Jul 10:43:23 10:47:18 35° 289° (WNW) 10:51:11 2200.000
RS-15 03 Jul 10:44:58 10:55:57 47° 39° (NE) 11:07:29 29.354- 29.394
UWE-3 03 Jul 10:48:27 10:52:29 45° 99° (E) 10:56:36 435.000/436.395/437.385
PHONESAT 2.4 03 Jul 10:48:44 10:51:45 29° 161° (SSE) 10:54:48 2401.200-2431.200
VERMONT LUNAR 03 Jul 10:51:23 10:54:26 50° 178° (S) 10:57:31 437.305
ANTELSAT 03 Jul 11:00:11 11:04:29 80° 76° (ENE) 11:08:46 437.575/2403.000
VELOX 1 03 Jul 11:12:05 11:13:49 12° 88° (E) 11:15:47 145.980
TIGRISAT 03 Jul 11:13:13 11:17:31 76° 257° (WSW) 11:21:47 435.000
DOVE 4 03 Jul 11:15:22 11:18:09 17° 295° (WNW) 11:20:47 437.250
QB50P1 03 Jul 11:19:34 11:23:42 54° 73° (ENE) 11:27:51 145.935-145.965
DX 1 03 Jul 11:25:16 11:29:07 31° 96° (E) 11:32:59 434.975-435.025
CUBEBUG 2 03 Jul 11:30:53 11:34:55 48° 287° (WNW) 11:39:01 437.445
SEEDS 03 Jul 11:31:53 11:34:32 16° 295° (WNW) 11:37:04 437.485
NANOSAT C BR1 03 Jul 11:34:14 11:38:29 78° 74° (ENE) 11:42:43 145.865
ZACube-1 03 Jul 11:39:08 11:43:19 63° 285° (WNW) 11:47:32 437.345
DUCHIFAT 1 03 Jul 11:41:40 11:45:55 88° 256° (WSW) 11:50:10 145.980
POLYITAN 1 03 Jul 11:44:58 11:49:13 78° 258° (WSW) 11:53:28 437.675
Cosmos 2499 03 Jul 11:46:12 11:53:14 79° 96° (E) 12:00:23 435.465 / 435.565
AAUSAT CUBESAT 2 03 Jul 11:46:32 11:49:09 16° 295° (WNW) 11:51:37 437.432
UKube-1 03 Jul 11:48:05 11:52:18 50° 100° (E) 11:56:30 .
Oscar 11 03 Jul 11:51:31 11:55:19 29° 291° (WNW) 11:59:03 145.826/435.025
UNISAT 6 03 Jul 11:53:09 11:56:52 27° 265° (W) 12:00:31 437.425
ISS 03 Jul 11:55:24 11:57:54 20° 351° (N) 12:00:23 145.825
AISAT 03 Jul 11:56:53 12:01:01 38° 98° (E) 12:05:08 437.250
BUGSAT 1 03 Jul 12:04:46 12:09:00 73° 258° (WSW) 12:13:13 437.445
HUMSAT D 03 Jul 12:09:18 12:13:27 67° 284° (WNW) 12:17:35 437.325/437.525
DELFI C3 03 Jul 12:10:55 12:14:12 23° 292° (WNW) 12:17:25 145.870
QB50P2 03 Jul 12:15:20 12:19:16 35° 263° (W) 12:23:11 145.880/145.840
POPSAT HIP 1 03 Jul 12:16:25 12:20:21 35° 263° (W) 12:24:15 437.405
FUNcube-1 03 Jul 12:16:27 12:20:00 26° 291° (WNW) 12:23:32 145.935
CUBEBUG 1 03 Jul 12:19:11 12:23:13 36° 97° (E) 12:27:14 437.445
ESTCUBE 1 03 Jul 12:23:49 12:28:14 48° 99° (E) 12:32:38 437.505/2401.250
50 SAT 03 Jul 12:23:50 12:27:45 88° 289° (WNW) 12:31:41 437.505
HO-68 03 Jul 12:25:22 12:29:33 16° 308° (NW) 12:33:26 435.675
UWE-3 03 Jul 12:25:56 12:28:44 17° 294° (WNW) 12:31:27 435.000/436.395/437.385
PHONESAT 2.4 03 Jul 12:26:06 12:29:29 53° 177° (S) 12:32:53 2401.200-2431.200
VERMONT LUNAR 03 Jul 12:28:13 12:31:09 36° 194° (SSW) 12:34:06 437.305
Oscar 19 03 Jul 12:36:41 12:39:59 18° 62° (ENE) 12:43:26 437.125/150
TISAT 1 03 Jul 12:39:51 12:40:49 11° 87° (E) 12:42:03 437.305
GONETS M04 03 Jul 12:39:54 12:44:39 15° 307° (NW) 12:48:52
VELOX 1 03 Jul 12:46:30 12:50:54 65° 286° (WNW) 12:55:15 145.980
RS-15 03 Jul 12:57:35 13:09:08 66° 243° (WSW) 13:21:03 29.354- 29.394
QB50P1 03 Jul 12:57:40 12:59:57 14° 271° (W) 13:02:04 145.935-145.965
DX 1 03 Jul 13:01:38 13:05:17 26° 293° (WNW) 13:08:49 434.975-435.025
UKube-1 03 Jul 13:25:14 13:28:05 17° 296° (WNW) 13:30:47 .
SPROUT 03 Jul 13:26:08 13:30:22 56° 100° (E) 13:34:33 437.525
ISS 03 Jul 13:32:30 13:35:05 21° 11° (NNE) 13:37:39 145.825
AISAT 03 Jul 13:33:58 13:37:23 22° 294° (WNW) 13:40:40 437.250
